Overview Statistics Trail Chart Weather Telemetry Raw packets
 

This is the latest recevied weather packets stored in our database for station/object IW2NTF-3. If no packets are shown the sender has not sent any weather packets the latest 10 day(s).

<< 14 15 16 17 18 19 20 >>
Time Temp. Humidity Pressure Rain* Wind** Luminosity Snow
1788689583 29.44° C 59% 1022.7 hPa 0 mm - 701 W/m² -
1788689523 29.44° C 59% 1022.8 hPa 0 mm - 698 W/m² -
1788689463 29.44° C 60% 1022.8 hPa 0 mm - 700 W/m² -
1788689405 28.89° C 60% 1022.8 hPa 0 mm - 696 W/m² -
1788689343 28.89° C 60% 1022.7 hPa 0 mm - 694 W/m² -
1788689283 28.89° C 59% 1022.7 hPa 0 mm - 693 W/m² -
1788689103 28.89° C 59% 1022.9 hPa 0 mm - 691 W/m² -
1788689043 28.89° C 58% 1022.8 hPa 0 mm - 687 W/m² -
1788688983 29.44° C 58% 1022.8 hPa 0 mm - 687 W/m² -
1788688923 29.44° C 60% 1022.9 hPa 0 mm - 691 W/m² -
1788688863 29.44° C 60% 1022.8 hPa 0 mm - 686 W/m² -
1788688804 28.89° C 60% 1022.8 hPa 0 mm - 687 W/m² -
1788688744 28.89° C 60% 1022.8 hPa 0 mm - 677 W/m² -
1788688684 28.89° C 60% 1022.8 hPa 0 mm - 675 W/m² -
1788688624 28.89° C 59% 1022.8 hPa 0 mm - 673 W/m² -
1788688564 28.89° C 60% 1022.8 hPa 0 mm - 673 W/m² -
1788688503 28.89° C 60% 1022.8 hPa 0 mm - 670 W/m² -
1788688443 28.89° C 60% 1022.8 hPa 0 mm - 670 W/m² -
1788688383 28.89° C 60% 1022.8 hPa 0 mm - 671 W/m² -
1788688324 28.89° C 60% 1022.8 hPa 0 mm - 668 W/m² -
1788688264 28.89° C 60% 1022.9 hPa 0 mm - 666 W/m² -
1788688204 28.89° C 61% 1022.9 hPa 0 mm - 668 W/m² -
1788688143 28.89° C 61% 1022.9 hPa 0 mm - 673 W/m² -
1788688085 28.89° C 60% 1023 hPa 0 mm - 670 W/m² -
1788688024 28.89° C 60% 1023 hPa 0 mm - 664 W/m² -

* Rain latest hour (hover to see other rain measurements)
** Current wind speed in m/s (hover to see current wind gust speed)